Date,TemperatureHighF,TemperatureAvgF,TemperatureLowF,DewpointHighF,DewpointAvgF,DewpointLowF,HumidityHigh,HumidityAvg,HumidityLow,PressureMaxIn,PressureMinIn,WindSpeedMaxMPH,WindSpeedAvgMPH,GustSpeedMaxMPH,PrecipitationSumIn
2013-1-1,42.0,37.8,33.0,35.0,30.1,26.0,99,74,60,0.00,40.00,12,1,24,0.00
2013-1-2,44.0,39.0,36.0,30.0,26.9,25.0,66,62,56,0.00,40.00,14,1,26,0.00
2013-1-3,42.0,36.5,35.0,36.0,29.1,24.0,100,76,60,0.00,40.00,6,0,25,0.00
2013-1-4,46.0,40.6,36.0,46.0,40.6,36.0,100,100,99,0.00,40.00,0,0,0,0.00
2013-1-5,42.0,39.4,37.0,42.0,37.2,35.0,100,92,83,0.00,40.00,0,0,0,0.00
2013-1-6,46.0,39.0,35.0,46.0,39.0,35.0,100,100,99,0.00,40.00,0,0,2,0.00
2013-1-7,51.0,48.2,46.0,51.0,48.2,45.0,100,100,99,0.00,40.00,0,0,2,0.00
2013-1-8,51.0,49.4,45.0,51.0,49.4,45.0,100,100,99,0.00,40.00,0,0,21,0.00
2013-1-9,50.0,41.5,34.0,49.0,41.1,34.0,100,99,89,0.00,40.00,0,0,21,0.01
2013-1-10,42.0,35.7,33.0,42.0,35.7,33.0,100,100,100,0.00,40.00,0,0,0,0.00
2013-1-11,41.0,33.7,29.0,37.0,32.1,29.0,100,95,64,0.00,40.00,0,0,0,0.00
2013-1-12,40.0,31.6,27.0,34.0,30.3,27.0,100,95,80,0.00,40.00,0,0,0,0.01
2013-1-13,32.0,27.6,25.0,30.0,27.3,25.0,100,99,94,0.00,40.00,0,0,4,0.26
2013-1-14,34.0,30.8,27.0,34.0,30.7,27.0,100,100,97,0.00,40.00,0,0,0,0.25
2013-1-15,39.0,36.3,34.0,39.0,36.1,34.0,100,99,98,0.00,40.00,0,0,16,0.05
2013-1-16,37.0,34.0,32.0,36.0,33.8,32.0,100,99,96,0.00,40.00,0,0,4,0.02
2013-1-17,42.0,36.3,31.0,38.0,34.3,31.0,100,93,76,0.00,40.00,0,0,12,0.04
2013-1-18,44.0,39.0,34.0,37.0,34.4,32.0,92,84,74,0.00,40.00,0,0,12,0.01
2013-1-19,47.0,37.8,29.0,37.0,33.0,29.0,100,83,68,0.00,40.00,0,0,12,0.00
2013-1-20,48.0,36.5,29.0,35.0,31.4,28.0,96,83,58,0.00,40.00,0,0,9,0.05
2013-1-21,43.0,34.7,28.0,34.0,30.5,27.0,97,85,69,0.00,40.00,0,0,4,0.02
2013-1-22,44.0,36.2,30.0,33.0,30.4,28.0,92,80,65,0.00,40.00,0,0,1,0.02
2013-1-23,40.0,36.4,34.0,38.0,33.7,30.0,100,91,73,0.00,40.00,0,0,0,0.01
2013-1-24,46.0,38.2,32.0,46.0,38.2,32.0,100,100,98,0.00,40.00,0,0,0,0.01
2013-1-25,49.0,42.3,35.0,49.0,42.3,35.0,100,100,100,0.00,40.00,0,0,3,0.00
2013-1-26,45.0,40.7,35.0,45.0,40.7,35.0,100,100,97,0.00,40.00,0,0,3,0.00
2013-1-27,42.0,39.4,34.0,42.0,39.4,34.0,100,100,100,0.00,40.00,0,0,0,0.00
2013-1-28,45.0,42.8,40.0,45.0,42.8,40.0,100,100,100,0.00,40.00,0,0,0,0.00
2013-1-29,45.0,44.5,44.0,45.0,44.5,44.0,100,100,99,0.00,40.00,0,0,0,0.01
2013-1-30,49.0,46.7,44.0,49.0,46.7,44.0,100,100,100,0.00,40.00,0,0,0,0.00
2013-1-31,54.0,46.9,40.0,50.0,45.3,40.0,100,95,76,0.00,40.00,0,0,0,0.00
2013-2-1,55.0,48.6,38.0,48.0,43.5,38.0,100,84,61,0.00,40.00,19,0,30,0.00
2013-2-2,58.0,50.4,42.0,46.0,41.6,38.0,100,73,60,0.00,40.00,13,0,22,0.00
2013-2-3,48.0,46.6,44.0,47.0,45.6,44.0,100,96,91,0.00,40.00,0,0,0,0.00
2013-2-4,49.0,44.8,39.0,46.0,43.6,39.0,100,96,86,0.00,40.00,0,0,3,0.00
2013-2-5,49.0,46.6,45.0,48.0,45.7,43.0,100,97,88,0.00,40.00,0,0,9,0.00
2013-2-6,48.0,45.2,39.0,46.0,44.0,39.0,100,96,85,0.00,40.00,0,0,12,0.00
2013-2-7,45.0,39.4,35.0,43.0,39.1,35.0,100,99,89,0.00,40.00,0,0,0,0.00
2013-2-8,49.0,37.4,31.0,44.0,35.9,31.0,100,95,74,0.00,40.00,0,0,7,0.00
2013-2-9,46.0,40.7,33.0,46.0,40.7,33.0,100,100,100,0.00,40.00,0,0,0,0.00
2013-2-10,47.0,43.8,41.0,46.0,43.1,41.0,100,98,90,0.00,40.00,0,0,0,0.00
2013-2-11,47.0,43.9,41.0,47.0,43.6,41.0,100,99,88,0.00,40.00,0,0,0,0.00
2013-2-12,49.0,46.8,45.0,49.0,46.8,45.0,100,100,100,0.00,40.00,0,0,0,0.00
2013-2-13,49.0,46.5,43.0,48.0,43.1,-99.9,100,97,92,0.00,40.00,0,0,0,0.00
2013-2-14,56.0,45.5,37.0,50.0,44.0,37.0,100,95,79,0.00,40.00,0,0,3,0.00
2013-2-15,62.0,49.3,40.0,49.0,45.0,40.0,100,87,59,0.00,40.00,0,0,22,0.00
2013-2-16,48.0,45.0,41.0,47.0,44.8,40.0,100,99,93,0.00,40.00,0,0,4,0.00
2013-2-17,46.0,39.7,35.0,44.0,38.7,35.0,100,97,76,0.00,40.00,0,0,0,0.00
2013-2-18,45.0,38.6,33.0,43.0,37.8,33.0,100,97,83,0.00,40.00,0,0,1,0.00
2013-2-19,49.0,40.3,31.0,43.0,38.6,31.0,100,94,75,0.00,40.00,0,0,3,0.00
2013-2-20,46.0,37.2,30.0,44.0,36.7,30.0,100,98,87,0.00,40.00,0,0,3,0.00
2013-2-21,45.0,41.3,37.0,45.0,41.2,37.0,100,100,97,0.00,40.00,0,0,0,0.00
2013-2-22,48.0,44.2,37.0,48.0,43.9,37.0,100,99,94,0.00,40.00,4,0,26,0.00
2013-2-23,45.0,39.7,36.0,44.0,38.8,36.0,100,97,83,0.00,40.00,0,0,8,0.00
2013-2-24,51.0,43.0,36.0,44.0,38.5,33.0,100,86,61,0.00,40.00,1,0,9,0.00
2013-2-25,46.0,41.7,36.0,46.0,41.0,36.0,100,97,76,0.00,40.00,0,0,6,0.00
2013-2-26,47.0,39.4,32.0,43.0,37.5,32.0,100,93,73,0.00,40.00,1,0,5,0.00
2013-2-27,48.0,45.5,42.0,48.0,44.9,40.0,100,98,88,0.00,40.00,0,0,0,0.00
2013-2-28,52.0,50.3,47.0,52.0,50.3,47.0,100,100,100,0.00,40.00,0,0,0,0.00
2013-3-1,55.0,51.1,45.0,53.0,50.7,45.0,100,98,92,0.00,40.00,0,0,5,0.00
2013-3-2,53.0,46.0,41.0,52.0,45.9,41.0,100,100,94,0.00,40.00,0,0,0,0.01
2013-3-3,48.0,39.4,32.0,43.0,37.6,32.0,100,94,73,0.00,40.00,1,0,7,0.00
2013-3-4,55.0,43.6,31.0,45.0,36.6,31.0,100,78,53,0.00,40.00,16,1,26,0.00
2013-3-5,45.0,42.3,38.0,45.0,42.2,38.0,100,100,94,0.00,40.00,0,0,0,0.00
2013-3-6,47.0,43.7,41.0,46.0,43.2,41.0,100,98,92,0.00,40.00,1,0,3,0.00
2013-3-7,54.0,42.1,33.0,46.0,39.7,33.0,100,92,64,0.00,40.00,0,0,3,0.00
2013-3-8,57.0,40.7,29.0,46.0,37.2,29.0,100,89,60,0.00,40.00,0,0,5,0.02
2013-3-9,58.0,41.0,30.0,46.0,37.4,30.0,100,89,54,0.00,40.00,0,0,6,0.00
2013-3-10,51.0,41.7,31.0,49.0,40.9,31.0,100,97,75,0.00,40.00,0,0,2,0.01
2013-3-11,52.0,48.5,46.0,52.0,48.5,46.0,100,100,99,0.00,40.00,0,0,0,0.00
2013-3-12,58.0,50.3,47.0,53.0,48.6,47.0,100,94,72,0.00,40.00,0,0,3,0.00
2013-3-13,59.0,50.3,45.0,51.0,47.3,45.0,100,90,70,0.00,40.00,0,0,8,0.01
2013-3-14,52.0,48.5,45.0,50.0,47.2,45.0,100,95,85,0.00,40.00,1,0,13,0.00
2013-3-15,54.0,50.2,46.0,53.0,50.0,46.0,100,100,96,0.00,40.00,0,0,13,0.00
2013-3-16,47.0,44.8,38.0,47.0,44.7,38.0,100,100,96,0.00,40.00,0,0,11,0.00
2013-3-17,47.0,39.7,35.0,42.0,38.1,35.0,100,94,69,0.00,40.00,3,0,10,0.00
2013-3-18,52.0,41.4,31.0,45.0,38.9,31.0,100,92,69,0.00,40.00,19,0,25,0.00
2013-3-19,52.0,46.1,41.0,51.0,41.6,36.0,100,85,66,0.00,40.00,14,0,22,0.00
2013-3-20,52.0,45.8,36.0,51.0,44.8,36.0,100,97,80,0.00,40.00,7,0,26,0.00
2013-3-21,46.0,39.9,36.0,43.0,38.9,36.0,100,96,78,0.00,40.00,0,0,16,0.00
2013-3-22,45.0,37.7,32.0,42.0,36.1,32.0,100,95,72,0.00,40.00,9,0,12,0.00
2013-3-23,50.0,39.3,31.0,40.0,35.0,31.0,100,87,51,0.00,40.00,0,0,10,0.00
2013-3-24,53.0,44.0,36.0,40.0,37.7,36.0,100,81,54,0.00,40.00,0,0,13,0.00
2013-3-25,57.0,43.8,36.0,45.0,39.5,36.0,100,87,52,0.00,40.00,0,0,9,0.00
2013-3-26,51.0,43.6,36.0,49.0,43.4,36.0,100,99,93,0.00,40.00,0,0,0,0.00
2013-3-27,56.0,47.6,41.0,51.0,46.7,41.0,100,97,82,0.00,40.00,1,0,6,0.00
2013-3-28,61.0,50.4,42.0,53.0,47.9,42.0,100,92,70,0.00,40.00,1,0,12,0.00
2013-3-29,66.0,52.3,45.0,53.0,48.7,45.0,100,89,62,0.00,40.00,5,0,9,0.00
2013-3-30,75.0,56.7,40.0,53.0,45.4,-99.9,100,74,39,0.00,40.00,5,0,23,0.00
2013-3-31,65.0,53.7,41.0,54.0,48.8,41.0,100,85,58,0.00,40.00,10,0,16,0.00
2013-4-1,55.0,52.0,50.0,53.0,51.0,50.0,100,96,89,0.00,40.00,0,0,10,0.00
2013-4-2,54.0,50.2,47.0,51.0,49.2,47.0,100,97,88,0.00,40.00,0,0,7,0.00
2013-4-3,64.0,52.5,40.0,55.0,49.0,40.0,100,89,68,0.00,40.00,0,0,5,0.00
2013-4-4,56.0,52.7,51.0,56.0,52.4,51.0,100,99,96,0.00,40.00,1,0,15,0.00
2013-4-5,52.0,51.2,50.0,52.0,50.8,50.0,100,99,96,0.00,40.00,0,0,23,0.00
2013-4-6,52.0,49.5,46.0,51.0,48.1,45.0,100,96,86,0.00,40.00,7,0,22,0.00
2013-4-7,52.0,45.9,41.0,52.0,45.6,41.0,100,99,95,0.00,40.00,13,0,24,0.00
2013-4-8,50.0,43.9,39.0,47.0,42.5,39.0,100,95,75,0.00,40.00,0,0,3,0.00
2013-4-9,58.0,47.0,38.0,49.0,44.0,38.0,100,90,67,0.00,40.00,0,0,0,0.00
2013-4-10,51.0,49.0,44.0,51.0,47.7,43.0,100,95,82,0.00,40.00,0,0,4,0.00
2013-4-11,55.0,45.7,38.0,47.0,42.9,37.0,100,91,68,0.00,40.00,0,0,4,0.00
2013-4-12,52.0,42.3,33.0,47.0,40.5,33.0,100,94,73,0.00,40.00,0,0,3,0.00
2013-4-13,48.0,42.8,39.0,43.0,40.9,37.0,100,93,69,0.00,40.00,4,0,20,0.00
2013-4-14,48.0,42.5,39.0,44.0,40.9,39.0,100,94,76,0.00,40.00,0,0,8,0.00
2013-4-15,50.0,42.6,37.0,46.0,41.4,37.0,100,95,76,0.00,40.00,0,0,6,0.00
2013-4-16,54.0,45.6,38.0,48.0,42.2,38.0,100,89,69,0.00,40.00,4,0,12,0.00
2013-4-17,54.0,45.2,34.0,47.0,41.7,34.0,100,89,71,0.00,40.00,6,0,14,0.01
2013-4-18,56.0,48.7,42.0,49.0,45.5,42.0,100,90,69,0.00,40.00,1,0,10,0.03
2013-4-19,51.0,49.2,48.0,51.0,49.2,48.0,100,100,100,0.00,40.00,0,0,8,0.03
2013-4-20,51.0,48.0,46.0,49.0,46.8,45.0,100,96,83,0.00,40.00,0,0,2,0.07
2013-4-21,52.0,47.5,44.0,49.0,46.7,43.0,100,97,85,0.00,40.00,0,0,5,0.04
2013-4-22,64.0,48.8,33.0,47.0,37.7,32.0,100,72,31,0.00,40.00,13,0,19,0.02
2013-4-23,65.0,49.0,32.0,46.0,38.1,32.0,100,73,35,0.00,40.00,0,0,9,0.05
2013-4-24,75.0,57.9,38.0,43.0,37.2,29.0,100,54,22,0.00,40.00,6,0,25,0.04
2013-4-25,70.0,51.2,38.0,50.0,44.0,38.0,100,80,39,0.00,40.00,0,0,2,0.03
2013-4-26,74.0,53.1,35.0,51.0,42.9,35.0,100,75,29,0.00,40.00,0,0,11,0.02
2013-4-27,59.0,47.9,35.0,49.0,44.6,35.0,100,89,67,0.00,40.00,7,0,15,0.01
2013-4-28,57.0,52.3,49.0,53.0,49.8,47.0,100,91,71,0.00,40.00,4,0,10,0.00
2013-4-29,53.0,48.5,39.0,51.0,43.9,37.0,100,85,59,0.00,40.00,4,0,10,0.00
2013-4-30,53.0,43.7,35.0,46.0,38.7,35.0,100,85,56,0.00,40.00,2,0,13,0.00
2013-5-1,67.0,47.9,29.0,49.0,37.8,27.0,100,74,22,0.00,40.00,8,0,19,0.00
2013-5-2,76.0,59.0,42.0,45.0,40.7,32.0,100,56,22,0.00,40.00,17,0,24,0.00
2013-5-3,73.0,54.4,36.0,51.0,45.4,36.0,100,76,43,0.00,40.00,2,0,7,0.00
2013-5-4,81.0,62.5,41.0,50.0,41.7,33.0,100,58,18,0.00,40.00,2,0,21,0.00
2013-5-5,83.0,65.1,42.0,50.0,42.8,38.0,100,55,21,0.00,40.00,3,0,23,0.00
2013-5-6,64.0,54.9,42.0,53.0,49.6,42.0,100,83,66,0.00,40.00,5,0,18,0.00
2013-5-7,59.0,53.3,51.0,53.0,50.0,48.0,94,89,75,0.00,40.00,0,0,12,0.00
2013-5-8,60.0,53.5,51.0,52.0,49.9,48.0,96,88,74,0.00,40.00,0,0,4,0.00
2013-5-9,68.0,55.8,48.0,55.0,51.0,47.0,98,85,60,0.00,40.00,0,0,7,0.00
2013-5-10,64.0,51.0,44.0,55.0,47.6,-99.9,100,93,72,0.00,40.00,1,0,8,0.00
2013-5-11,74.0,59.2,48.0,58.0,51.2,-99.9,100,80,43,0.00,40.00,0,0,10,0.00
2013-5-12,66.0,58.5,54.0,56.0,55.0,53.0,100,89,67,0.00,40.00,0,0,3,0.03
2013-5-13,57.0,54.1,46.0,56.0,52.9,46.0,100,96,81,0.00,40.00,0,0,6,0.07
2013-5-14,61.0,51.1,41.0,51.0,45.0,41.0,100,82,56,0.00,40.00,0,0,5,0.01
2013-5-15,58.0,49.4,40.0,54.0,48.1,40.0,100,96,78,0.00,40.00,0,0,5,0.04
2013-5-16,58.0,50.8,47.0,55.0,37.1,-99.9,100,95,81,0.00,40.00,0,0,3,0.07
2013-5-17,59.0,51.7,45.0,52.0,44.9,-99.9,100,87,65,0.00,40.00,0,0,5,0.00
2013-5-18,57.0,52.0,45.0,56.0,51.1,45.0,100,97,89,0.00,40.00,0,0,3,0.10
2013-5-19,59.0,53.0,43.0,54.0,49.5,42.0,100,89,68,0.00,40.00,0,0,9,0.02
2013-5-20,64.0,50.6,36.0,52.0,45.3,36.0,100,84,56,0.00,40.00,0,0,7,0.00
2013-5-21,50.0,46.2,43.0,49.0,46.0,42.0,100,99,94,0.00,40.00,0,0,3,0.51
2013-5-22,50.0,46.3,42.0,50.0,46.2,42.0,100,100,98,0.00,40.00,0,0,6,0.23
2013-5-23,53.0,48.9,47.0,50.0,48.4,47.0,100,98,88,0.00,40.00,0,0,3,1.36
2013-5-24,55.0,50.2,47.0,52.0,48.9,47.0,100,95,83,0.00,40.00,0,0,3,0.61
2013-5-25,61.0,53.0,47.0,52.0,49.0,46.0,100,87,65,0.00,40.00,0,0,15,0.12
2013-5-26,56.0,52.6,51.0,53.0,51.3,50.0,100,95,84,0.00,40.00,0,0,7,0.09
2013-5-27,57.0,53.3,51.0,57.0,52.9,50.0,100,98,93,0.00,40.00,0,0,7,0.11
2013-5-28,57.0,52.7,50.0,53.0,50.6,48.0,100,93,74,0.00,40.00,4,0,12,0.16
2013-5-29,55.0,51.8,49.0,53.0,51.2,49.0,100,98,81,0.00,40.00,0,0,11,0.11
2013-5-30,58.0,51.1,44.0,53.0,48.2,44.0,100,91,65,0.00,40.00,0,0,12,0.11
2013-5-31,63.0,52.0,38.0,52.0,46.8,38.0,100,84,62,0.00,40.00,0,0,9,0.08
2013-6-1,66.0,54.6,41.0,56.0,48.7,41.0,100,83,56,0.00,40.00,0,0,13,0.06
2013-6-2,61.0,56.4,53.0,55.0,52.5,51.0,100,87,74,0.00,40.00,0,0,5,0.05
2013-6-3,67.0,57.0,47.0,54.0,50.6,46.0,99,80,61,0.00,40.00,2,0,10,0.05
2013-6-4,76.0,57.6,39.0,57.0,49.7,39.0,100,78,50,0.00,40.00,0,0,9,0.04
2013-6-5,71.0,57.5,45.0,58.0,52.9,45.0,100,86,63,0.00,40.00,0,0,5,0.03
2013-6-6,70.0,58.0,49.0,57.0,52.9,48.0,100,85,63,0.00,40.00,0,0,3,0.03
2013-6-7,68.0,55.6,43.0,56.0,50.1,42.0,100,84,39,0.00,40.00,1,0,3,0.02
2013-6-8,70.0,57.5,43.0,53.0,50.2,43.0,100,79,50,0.00,40.00,0,0,7,0.00
2013-6-9,65.0,54.7,43.0,52.0,47.9,43.0,100,80,58,0.00,40.00,0,0,14,0.00
2013-6-10,62.0,51.5,37.0,49.0,44.7,37.0,100,80,58,0.00,40.00,1,0,17,0.00
2013-6-11,59.0,52.0,45.0,53.0,49.0,44.0,100,91,68,0.00,40.00,0,0,4,0.03
2013-6-12,58.0,53.0,49.0,53.0,50.3,48.0,100,91,73,0.00,40.00,0,0,8,0.03
2013-6-13,60.0,54.8,51.0,55.0,52.7,51.0,100,93,75,0.00,40.00,8,0,14,0.56
2013-6-14,69.0,58.5,50.0,55.0,52.3,49.0,100,82,55,0.00,40.00,0,0,16,0.00
2013-6-15,63.0,55.2,43.0,57.0,51.9,43.0,100,90,77,0.00,40.00,3,0,16,0.00
2013-6-16,65.0,58.5,54.0,55.0,53.7,52.0,98,85,66,0.00,40.00,5,0,13,0.00
2013-6-17,67.0,57.1,46.0,56.0,52.3,46.0,100,86,58,0.00,40.00,0,0,12,0.06
2013-6-18,59.0,53.9,46.0,55.0,52.3,46.0,100,95,78,0.00,40.00,0,0,7,0.10
2013-6-19,61.0,53.8,47.0,56.0,51.6,47.0,100,93,71,0.00,40.00,5,0,5,0.17
2013-6-20,61.0,53.9,50.0,56.0,52.8,50.0,100,96,75,0.00,40.00,0,0,10,0.09
2013-6-21,66.0,65.2,64.0,53.0,52.8,52.0,68,64,61,0.00,40.00,0,0,7,0.00
2013-6-22,74.0,66.7,43.0,58.0,54.1,43.0,100,66,51,0.00,40.00,0,0,10,0.01
2013-6-23,65.0,59.9,57.0,62.0,59.3,56.0,100,98,85,0.00,40.00,0,0,0,0.20
2013-6-24,61.0,57.2,54.0,58.0,55.8,54.0,100,96,78,0.00,40.00,0,0,2,0.15
2013-6-25,61.0,58.0,56.0,60.0,57.1,55.0,100,97,83,0.00,40.00,0,0,2,0.36
2013-6-26,69.0,62.3,57.0,61.0,58.1,55.0,100,87,63,0.00,40.00,0,0,4,0.07
2013-6-27,69.0,62.6,58.0,65.0,61.3,58.0,100,96,80,0.00,40.00,0,0,0,0.02
2013-6-28,77.0,65.6,54.0,65.0,59.3,54.0,100,83,58,0.00,40.00,5,0,12,0.00
2013-6-29,81.0,67.7,54.0,63.0,59.3,54.0,100,78,50,0.00,40.00,10,0,14,0.00
2013-6-30,77.0,66.4,54.0,65.0,60.0,54.0,100,82,55,0.00,40.00,0,0,7,0.00
2013-7-1,75.0,65.1,58.0,64.0,60.8,58.0,100,87,67,0.00,40.00,2,0,11,0.00
2013-7-2,73.0,64.3,57.0,61.0,59.3,56.0,99,85,66,0.00,40.00,1,0,6,0.00
2013-7-3,72.0,61.0,49.0,58.0,54.0,49.0,100,80,58,0.00,40.00,0,0,13,0.00
2013-7-4,68.0,61.3,47.0,55.0,52.6,47.0,100,75,61,0.00,40.00,8,0,20,0.00
2013-7-5,69.0,60.3,54.0,57.0,54.2,52.0,97,81,61,0.00,40.00,9,0,18,0.00
2013-7-6,69.0,59.5,48.0,57.0,53.9,48.0,100,83,65,0.00,40.00,1,0,8,0.00
2013-7-7,68.0,61.0,57.0,57.0,54.9,53.0,92,81,66,0.00,40.00,2,0,11,0.00
2013-7-8,73.0,61.1,54.0,57.0,54.3,52.0,97,80,58,0.00,40.00,0,0,9,0.00
2013-7-9,73.0,57.3,47.0,60.0,53.2,47.0,100,88,60,0.00,40.00,0,0,8,0.00
2013-7-10,67.0,56.0,46.0,56.0,48.7,-99.9,100,81,61,0.00,40.00,8,0,13,0.00
2013-7-11,67.0,61.0,45.0,53.0,50.0,45.0,100,69,54,0.00,40.00,1,0,16,0.00
2013-7-12,66.0,54.5,40.0,52.0,47.3,40.0,100,79,56,0.00,40.00,2,0,13,0.00
2013-7-13,71.0,58.1,40.0,55.0,50.0,40.0,100,77,52,0.00,40.00,0,0,6,0.00
2013-7-14,72.0,55.8,41.0,55.0,49.2,41.0,100,82,54,0.00,40.00,0,0,6,0.00
2013-7-15,76.0,57.5,43.0,58.0,50.6,43.0,100,81,50,0.00,40.00,1,0,6,0.00
2013-7-16,67.0,56.0,49.0,59.0,53.9,49.0,100,93,74,0.00,40.00,2,0,14,0.00
2013-7-17,64.0,58.7,49.0,57.0,55.1,48.0,98,88,74,0.00,40.00,0,0,5,0.00
2013-7-18,70.0,53.5,43.0,58.0,50.3,43.0,100,91,61,0.00,40.00,0,0,4,0.00
2013-7-19,67.0,55.7,46.0,57.0,52.2,46.0,100,89,68,0.00,40.00,0,0,13,0.00
2013-7-20,69.0,57.7,54.0,57.0,52.6,-99.9,97,86,66,0.00,40.00,0,0,5,0.00
2013-7-21,55.0,54.2,53.0,54.0,53.2,52.0,98,96,95,0.00,40.00,0,0,0,0.00
2013-7-31,61.0,59.0,57.0,57.0,56.4,55.0,100,91,85,30.11,30.09,0,0,0,0.00
2013-8-1,62.0,57.8,56.0,59.0,57.1,56.0,100,97,84,30.13,30.08,0,0,3,0.02
2013-8-2,64.0,59.3,56.0,59.0,57.3,56.0,100,93,79,30.15,30.11,0,0,5,0.01
2013-8-3,73.0,62.0,53.0,60.0,57.0,53.0,100,85,63,30.11,30.02,0,0,7,0.00
2013-8-4,73.0,58.9,49.0,60.0,55.3,49.0,100,89,64,30.04,29.98,3,0,9,0.00
2013-8-5,70.0,59.0,51.0,59.0,54.6,50.0,100,87,64,30.04,29.97,1,0,9,0.00
2013-8-6,77.0,54.2,43.0,57.0,50.5,43.0,100,89,50,30.01,29.95,0,0,3,0.00
2013-8-7,65.0,55.2,50.0,58.0,53.5,49.0,100,95,74,30.09,29.99,0,0,8,0.00
2013-8-8,74.0,59.7,53.0,62.0,56.5,52.0,100,90,65,30.07,29.97,0,0,3,0.00
2013-8-9,71.0,60.3,52.0,59.0,56.0,52.0,100,87,66,29.99,29.91,5,0,11,0.00
2013-8-10,67.0,59.7,57.0,58.0,56.5,55.0,99,90,71,30.08,29.95,0,0,3,0.00
2013-8-11,63.0,59.4,57.0,59.0,57.4,56.0,100,93,84,30.09,30.04,0,0,0,0.00
2013-8-21,81.0,57.6,43.0,58.0,51.3,43.0,100,83,45,30.03,29.88,3,0,10,0.00
2013-8-22,66.0,57.2,49.0,59.0,55.0,49.0,100,93,77,29.94,29.89,0,0,4,0.00
2013-8-23,68.0,61.0,57.0,62.0,58.9,57.0,100,93,73,29.96,29.92,0,0,4,0.01
2013-8-24,70.0,60.8,54.0,60.0,54.2,-99.9,100,84,61,29.93,29.89,0,0,8,0.00
2013-8-25,70.0,57.6,48.0,60.0,54.3,48.0,100,90,63,29.93,29.90,0,0,7,0.00
2013-8-26,69.0,58.8,51.0,60.0,55.2,51.0,100,90,55,29.96,29.90,0,0,12,0.36
2013-8-27,71.0,61.8,60.0,65.0,61.2,60.0,100,98,80,29.95,29.86,0,0,0,0.19
2013-10-18,70.0,52.5,40.0,48.0,43.6,40.0,100,78,38,30.14,30.06,0,0,8,0.00
2013-10-19,68.0,52.7,36.0,54.0,42.9,-99.9,100,78,57,30.14,30.09,0,0,0,0.00
2013-10-20,64.0,50.4,36.0,54.0,48.0,36.0,100,92,69,30.14,30.06,0,0,0,0.00
2013-10-21,68.0,45.7,37.0,53.0,44.2,37.0,100,95,57,30.08,29.95,0,0,0,0.00
2013-10-22,60.0,50.0,40.0,56.0,49.2,40.0,100,97,83,30.04,29.98,0,0,0,0.00
2013-10-23,56.0,49.7,45.0,54.0,49.5,45.0,100,99,94,30.03,29.98,0,0,0,0.01
2013-10-24,61.0,51.2,46.0,55.0,50.1,46.0,100,96,80,30.10,30.01,0,0,0,0.00
2013-12-25,39.0,36.2,33.0,38.0,35.7,33.0,100,98,94,30.46,30.37,0,0,9,0.01
2013-12-26,42.0,35.7,33.0,38.0,34.9,33.0,100,97,87,30.37,30.20,0,0,3,0.00
2013-12-27,47.0,37.6,32.0,42.0,36.7,32.0,100,97,83,30.39,30.17,0,0,0,0.00
2013-12-28,44.0,35.7,30.0,42.0,33.1,-99.9,100,96,89,30.49,30.40,0,0,1,0.00
2013-12-29,41.0,38.3,31.0,40.0,37.4,31.0,100,97,93,30.44,30.26,0,0,3,0.00
2013-12-30,46.0,40.9,35.0,42.0,38.6,35.0,100,91,84,30.26,30.16,0,0,4,0.00
2013-12-31,54.0,42.9,36.0,49.0,41.9,36.0,100,97,81,30.33,30.23,0,0,0,0.00